Lid_Strength_Index
3 2 2 1 1 1 1 1 0 0 0 1 1 1 1 0 0 -0 -1 -1 -1 -1 -1 -0 -0 -1 0 0 -1 -0 0 1 -0 1 1 0 -0 -0 -0 -1 -1 -1 -1
3 3 2 2 2 1 1 1 1 0 0 0 0 0 0 -0 -0 -1 -1 -1 -1 -1 -1 -1 -0 -0 0 0 0 0 1 1 -1 2 2 4 2 1 -0 -0 -0 -1 -1
4 3 3 2 2 2 1 1 1 0 0 -0 -0 0 -0 -0 0 0 0 -1 -1 -1 -1 -1 -1 -0 -0 0 0 0 1 2 1 0 2 4 5 2 1 0 -0 -1 -0
3 3 3 3 2 2 1 1 1 0 0 -0 0 1 1 2 1 0 -0 -0 -1 -1 -1 -1 -1 -1 -0 -0 -0 -0 0 1 2 1 1 1 1 4 4 1 1 -0 -0
3 3 3 2 2 1 1 1 1 1 0 0 0 1 1 1 0 0 -0 -0 -1 -1 -1 -1 -1 -1 -0 -1 -0 -0 0 0 1 2 2 2 1 1 3 4 3 1 0
2 3 2 2 2 1 1 1 1 1 0 0 0 1 1 0 1 1 1 1 0 -1 -1 -1 -1 -1 -1 -0 -0 -0 -0 0 1 1 1 2 3 3 3 4 3 3 1
3 2 3 3 2 2 2 1 1 1 1 1 1 1 0 0 1 1 1 1 1 0 -0 -1 -1 -0 -1 -0 -1 -0 -0 0 1 1 1 1 1 1 2 2 3 3 2
3 3 2 2 2 2 2 2 2 2 1 1 1 0 0 1 1 0 0 0 0 0 -1 -1 -1 -1 -1 -0 -1 -0 0 -0 1 1 1 1 1 1 1 2 3 4 3
4 3 3 2 2 2 2 2 2 2 1 1 1 1 0 0 1 -0 -0 0 -1 -0 -1 -1 -1 -1 -1 -0 -0 0 0 -0 0 1 1 1 1 0 1 1 1 3 6
4 3 3 2 2 2 2 1 1 2 1 1 1 1 1 0 0 0 0 -0 -0 -1 -1 -0 -0 -0 -1 -1 -1 -0 -0 0 -0 -0 0 0 0 0 0 0 0 1 2
4 4 3 2 2 2 2 2 2 2 1 1 1 1 1 0 0 0 0 -0 -0 -0 -0 -0 -0 -0 -0 -0 -0 -0 -0 0 0 0 0 0 -0 0 -0 0 1 1 1
5 4 4 3 3 2 2 2 2 2 1 1 1 1 1 1 1 1 0 -0 -0 -0 -0 -0 -0 -0 -0 -0 -0 0 0 0 1 1 0 0 0 0 -0 0 0 0 0
5 5 4 4 4 3 3 3 3 7 5 1 1 1 1 1 1 1 0 0 -0 -0 -0 -0 0 0 -0 -0 -0 -0 0 0 0 0 0 0 0 0 0 0 0 1 1
6 5 5 7 7 7 7 7 6 4 4 3 2 2 1 1 1 0 0 0 -0 0 0 -0 -0 -0 -0 -0 -0 -0 0 0 -0 -0 -0 0 0 0 0 0 0 0 1
5 5 5 5 6 4 5 4 3 3 3 3 3 2 1 1 0 1 0 0 0 0 -0 0 -0 -0 -0 0 -0 -0 0 0 0 -0 -0 -0 -0 0 0 0 -0 0 1
5 4 4 4 3 3 3 3 2 3 2 2 2 1 1 1 1 1 1 1 0 0 0 0 0 0 0 3 3 1 0 0 0 1 -0 -0 0 0 1 1 1 0 1
5 5 4 4 3 3 3 3 2 2 2 2 2 2 2 1 1 1 1 1 1 0 1 1 0 1 0 5 5 3 0 0 0 0 0 0 0 0 -0 2 2 1 1
5 5 4 4 3 2 2 2 2 2 2 2 2 2 2 1 1 1 1 1 0 1 1 1 1 1 0 6 7 5 -0 0 0 -0 -0 0 0 -0 0 0 0 0 -0
4 3 3 2 3 3 2 2 2 2 2 2 2 2 1 1 1 2 1 1 1 1 0 0 1 1 1 6 7 5 0 1 0 0 -0 -0 0 3 4 0 1 1 1
3 3 2 2 2 2 2 2 3 3 3 2 2 1 1 1 2 2 2 1 1 1 1 1 1 3 1 5 8 5 1 1 1 0 -0 4 1 7 6 0 0 2 1
3 2 2 2 2 1 1 2 2 3 2 2 1 1 1 1 1 1 1 1 1 1 2 2 1 1 1 1 9 9 1 1 1 1 1 0 6 8 8 5 0 1 -0
3 2 2 2 1 1 2 2 3 1 1 1 1 1 1 1 1 1 1 1 2 2 2 3 3 3 1 6 7 9 8 2 1 1 1 1 8 10 9 5 6 6 3
2 2 2 2 2 1 1 2 2 1 1 1 1 1 1 1 1 1 1 2 1 2 2 2 3 2 1 1 7 8 9 8 3 0 2 6 10 10 8 7 8 6 1
2 2 2 2 2 1 1 1 1 0 1 1 1 1 1 1 1 1 1 2 2 2 2 2 2 2 1 1 0 1 1 6 2 2 1 5 4 4 2 3 3 0 0
2 2 2 2 2 1 1 1 1 0 1 1 1 1 1 2 2 1 1 2 1 2 2 2 2 2 2 2 4 3 1 1 2 2 2 4 2 2 2 1 1 1 0
2 2 2 2 1 1 1 1 0 0 1 1 1 1 1 1 1 2 2 6 9 11 12 13 10 2 6 10 10 11 10 9 9 2 3 4 3 2 2 2 2 1 1